Weather History for Socorro, NM

Change the Weather History Date:

Tuesday, November 6, 2012

  Actual Average Record
Temperature  
Mean Temperature 56 °F -  
Max Temperature 74 °F 66 °F 74 °F (2010)
Min Temperature 39 °F 30 °F 28 °F (2013)
Degree Days  
Heating Degree Days 8    
Growing Degree Days 6 (Base 50)    
Moisture  
Dew Point 22 °F    
Average Humidity 29    
Maximum Humidity 45    
Minimum Humidity 16    
Precipitation  
Precipitation 0.00 in - - ()
Sea Level Pressure  
Sea Level Pressure 30.25 in    
Wind  
Wind Speed 5 mph (NW)    
Max Wind Speed 13 mph    
Max Gust Speed 17 mph    
Visibility 10 miles    
Events      
Averages and records for this station are not official NWS values.
T = Trace of Precipitation, MM = Missing Value Source: NWS Daily Summary

Daily Weather History Graph

Daily Weather History Graph

Search for Another Location

Airport:

Trip Planner

Search our weather history database for the weather conditions in past years. The results will help you decide how hot, cold, wet, or windy it might be!

Date:

Astronomy

Nov. 06, 2012 Rise Set
Actual Time 6:32 AM MST 5:09 PM MST
Civil Twilight 6:06 AM MST 5:36 PM MST
Nautical Twilight 5:36 AM MST 6:05 PM MST
Astronomical Twilight 5:06 AM MST 6:35 PM MST
Moon 11:48 PM MST (11/6) 12:28 PM MST (11/6)
Length of Visible Light 11h 29m
Length of Day
10h 37m
Waning Gibbous, 52% of the Moon is Illuminated
Nov 6
Waning Gibbous
Nov 6
Last Quarter
Nov 13
New
Nov 20
First Quarter
Nov 28
Full

Hourly Weather History & Observations

Time (MST) Temp. Windchill Dew Point Humidity Pressure Visibility Wind Dir Wind Speed Gust Speed Precip Events Conditions
12:15 AM 48.2 °F - 18.3 °F 31% 30.25 in 10.0 mi NW 6.9 mph - N/A   Clear
12:35 AM 49.1 °F - 18.3 °F 30% 30.25 in 10.0 mi NW 5.8 mph - N/A   Clear
12:55 AM 48.2 °F - 18.7 °F 31% 30.24 in 10.0 mi NW 6.9 mph - N/A   Clear
1:15 AM 49.1 °F - 18.9 °F 30% 30.24 in 10.0 mi North 8.1 mph - N/A   Clear
1:35 AM 48.2 °F - 19.2 °F 32% 30.25 in 10.0 mi NNW 4.6 mph - N/A   Clear
1:55 AM 48.4 °F - 19.0 °F 31% 30.26 in 10.0 mi NNW 3.5 mph - N/A   Clear
2:15 AM 46.0 °F 44.8 °F 18.3 °F 33% 30.26 in 10.0 mi WNW 3.5 mph - N/A   Clear
2:35 AM 43.7 °F - 17.8 °F 35% 30.26 in 10.0 mi Calm Calm - N/A   Clear
2:55 AM 41.5 °F - 17.1 °F 37% 30.26 in 10.0 mi Calm Calm - N/A   Clear
3:15 AM 39.6 °F 37.4 °F 18.1 °F 42% 30.26 in 10.0 mi WSW 3.5 mph - N/A   Clear
3:35 AM 42.4 °F 39.6 °F 19.9 °F 41% 30.26 in 10.0 mi West 4.6 mph - N/A   Clear
3:55 AM 41.5 °F 39.6 °F 19.4 °F 41% 30.25 in 10.0 mi NNW 3.5 mph - N/A   Clear
4:15 AM 40.5 °F 36.5 °F 19.0 °F 42% 30.26 in 10.0 mi SW 5.8 mph - N/A   Clear
4:35 AM 42.6 °F 39.9 °F 20.1 °F 41% 30.25 in 10.0 mi West 4.6 mph - N/A   Clear
4:55 AM 41.9 °F 39.0 °F 20.5 °F 42% 30.26 in 10.0 mi WNW 4.6 mph - N/A   Clear
5:15 AM 42.6 °F - 21.4 °F 43% 30.27 in 10.0 mi Calm Calm - N/A   Clear
5:35 AM 42.1 °F 40.2 °F 21.2 °F 43% 30.27 in 10.0 mi West 3.5 mph - N/A   Clear
5:55 AM 41.9 °F - 22.1 °F 45% 30.27 in 10.0 mi Calm Calm - N/A   Clear
6:15 AM 42.1 °F 39.2 °F 21.6 °F 44% 30.28 in 10.0 mi NNW 4.6 mph - N/A   Clear
6:35 AM 40.1 °F 35.3 °F 19.0 °F 43% 30.28 in 10.0 mi NW 6.9 mph - N/A   Clear
6:55 AM 42.3 °F 38.6 °F 19.2 °F 40% 30.30 in 10.0 mi NW 5.8 mph - N/A   Clear
7:15 AM 44.8 °F 43.3 °F 19.4 °F 36% 30.30 in 10.0 mi WNW 3.5 mph - N/A   Clear
7:35 AM 46.4 °F 45.2 °F 19.9 °F 35% 30.31 in 10.0 mi NNW 3.5 mph - N/A   Clear
7:55 AM 48.2 °F - 20.1 °F 33% 30.31 in 10.0 mi NW 5.8 mph - N/A   Clear
8:15 AM 49.8 °F - 20.8 °F 32% 30.31 in 10.0 mi NW 8.1 mph - N/A   Clear
8:35 AM 52.0 °F - 21.6 °F 30% 30.32 in 10.0 mi NNW 5.8 mph - N/A   Clear
8:55 AM 54.5 °F - 22.8 °F 29% 30.32 in 10.0 mi North 6.9 mph - N/A   Clear
9:15 AM 57.6 °F - 23.4 °F 27% 30.32 in 10.0 mi North 9.2 mph - N/A   Clear
9:35 AM 59.0 °F - 23.9 °F 26% 30.32 in 10.0 mi North 10.4 mph - N/A   Clear
9:55 AM 61.5 °F - 25.2 °F 25% 30.32 in 10.0 mi North 10.4 mph - N/A   Clear
10:35 AM 65.7 °F - 26.6 °F 23% 30.31 in 10.0 mi NNE 12.7 mph 17.3 mph N/A   Clear
10:55 AM 66.4 °F - 26.6 °F 22% 30.30 in 10.0 mi North 9.2 mph - N/A   Clear
11:15 AM 67.5 °F - 26.6 °F 22% 30.29 in 10.0 mi NNW 8.1 mph - N/A   Clear
11:35 AM 68.2 °F - 26.4 °F 21% 30.28 in 10.0 mi North 9.2 mph - N/A   Clear
11:55 AM 70.0 °F - 26.6 °F 20% 30.27 in 10.0 mi North 11.5 mph 16.1 mph N/A   Clear
12:15 PM 70.7 °F - 26.4 °F 19% 30.26 in 10.0 mi North 11.5 mph - N/A   Clear
12:35 PM 71.4 °F - 26.2 °F 19% 30.25 in 10.0 mi North 5.8 mph - N/A   Clear
12:55 PM 72.3 °F - 25.9 °F 18% 30.24 in 10.0 mi North 8.1 mph - N/A   Clear
1:35 PM 72.7 °F - 25.5 °F 17% 30.23 in 10.0 mi North 6.9 mph - N/A   Clear
1:55 PM 73.6 °F - 25.7 °F 17% 30.22 in 10.0 mi NNW 6.9 mph - N/A   Clear
2:15 PM 73.2 °F - 25.5 °F 17% 30.21 in 10.0 mi NNW 4.6 mph - N/A   Clear
2:35 PM 73.2 °F - 25.2 °F 17% 30.21 in 10.0 mi North 4.6 mph - N/A   Clear
2:55 PM 74.1 °F - 25.7 °F 17% 30.21 in 10.0 mi NNW 3.5 mph - N/A   Clear
3:15 PM 73.8 °F - 25.0 °F 16% 30.21 in 10.0 mi NNE 3.5 mph - N/A   Clear
3:35 PM 73.6 °F - 25.0 °F 16% 30.20 in 10.0 mi North 3.5 mph - N/A   Clear
3:55 PM 73.6 °F - 24.8 °F 16% 30.20 in 10.0 mi Calm Calm - N/A   Clear
4:15 PM 72.9 °F - 24.3 °F 16% 30.20 in 10.0 mi Calm Calm - N/A   Clear
4:35 PM 72.5 °F - 24.4 °F 17% 30.20 in 10.0 mi Calm Calm - N/A   Clear
4:55 PM 71.1 °F - 24.1 °F 17% 30.20 in 10.0 mi Calm Calm - N/A   Clear
5:15 PM 65.5 °F - 23.9 °F 21% 30.20 in 10.0 mi NW 4.6 mph - N/A   Clear
5:35 PM 62.8 °F - 23.9 °F 23% 30.20 in 10.0 mi WSW 5.8 mph - N/A   Clear
5:55 PM 60.1 °F - 23.4 °F 24% 30.20 in 10.0 mi West 5.8 mph - N/A   Clear
6:15 PM 59.2 °F - 23.2 °F 25% 30.21 in 10.0 mi West 4.6 mph - N/A   Clear
6:35 PM 58.5 °F - 23.5 °F 26% 30.21 in 10.0 mi WSW 9.2 mph - N/A   Clear
6:55 PM 59.2 °F - 23.5 °F 25% 30.21 in 10.0 mi WSW 9.2 mph - N/A   Clear
7:15 PM 58.8 °F - 23.7 °F 26% 30.21 in 10.0 mi Calm Calm - N/A   Clear
7:35 PM 57.9 °F - 23.7 °F 27% 30.21 in 10.0 mi WSW 10.4 mph - N/A   Clear
7:55 PM 58.1 °F - 23.7 °F 27% 30.21 in 10.0 mi Calm Calm - N/A   Clear
8:15 PM 56.8 °F - 23.9 °F 28% 30.22 in 10.0 mi West 3.5 mph - N/A   Clear
8:35 PM 52.7 °F - 23.0 °F 31% 30.22 in 10.0 mi WNW 4.6 mph - N/A   Clear
8:55 PM 52.9 °F - 23.4 °F 32% 30.22 in 10.0 mi WNW 6.9 mph - N/A   Clear
9:15 PM 51.3 °F - 22.6 °F 33% 30.23 in 10.0 mi West 4.6 mph - N/A   Clear
9:35 PM 51.6 °F - 22.6 °F 32% 30.23 in 10.0 mi West 4.6 mph - N/A   Clear
9:55 PM 49.5 °F - 22.1 °F 34% 30.24 in 10.0 mi NNW 3.5 mph - N/A   Clear
10:15 PM 48.7 °F - 22.1 °F 35% 30.24 in 10.0 mi WNW 4.6 mph - N/A   Clear
10:35 PM 48.9 °F - 21.9 °F 35% 30.23 in 10.0 mi WNW 3.5 mph - N/A   Clear
10:55 PM 49.8 °F - 22.3 °F 34% 30.24 in 10.0 mi Calm Calm - N/A   Clear
11:15 PM 51.4 °F - 22.8 °F 33% 30.24 in 10.0 mi Calm Calm - N/A   Clear
11:35 PM 47.3 °F - 21.4 °F 36% 30.24 in 10.0 mi Calm Calm - N/A   Clear
11:55 PM 49.8 °F - 21.9 °F 33% 30.25 in 10.0 mi Calm Calm - N/A   Clear